Location: Asheville, NC
(35.6000°N, 82.5500°W)
Time: 09:42:11

FALCONSAT 3 - Pass Details

Date: 09 March 2018
Orbit: 461 x 466 km, 35.4° (Epoch: 19 March)

Event Time Altitude Azimuth Distance (km) Brightness Sun altitude
Exits shadow 06:09:58 11° 252° (WSW) 1,554 ? -8.8°
Maximum altitude 06:13:29 70° 169° (S) 492 ? -8.1°
Drops below altitude 10° 06:17:08 10° 85° (E) 1,603 ? -7.4°
Sets 06:19:19 0° 83° (E) 2,478 ? -6.9°
